Location: Nashville
(36.1660°N, 86.7840°W)
Time: 18:25:54
(UTC-06:00)

Tiangong - Pass Details

Date: 05 December 2022
Orbit: 383 x 386 km, 41.5° (Epoch: 28 January)

Event Time Altitude Azimuth Distance (km) Brightness Sun altitude
Rises 18:43:20 0° 293° (WNW) 2,261 2.6 -25.8°
Reaches altitude 10° 18:45:29 10° 301° (WNW) 1,409 1.3 -26.2°
Enters shadow 18:46:06 14° 306° (NW) 1,182 0.8 -26.4°
